Location: ???????
(55.3754°N, 39.3545°E)
Time: 08:40:19
(UTC+00:00)

ARIANE 6 FM1 Upper Stage - Pass Details

Date: 14 April 2026
Orbit: 526 x 602 km, 62.0° (Epoch: 10 May)

Event Time Altitude Azimuth Distance (km) Brightness Sun altitude
Rises 23:18:35 0° 304° (NW) 2,678 6.2 -20.6°
Reaches altitude 10° 23:20:51 10° 298° (WNW) 1,780 5.2 -20.4°
Enters shadow 23:22:14 20° 289° (WNW) 1,268 4.3 -20.3°
